This is the latest recevied weather packets stored in our database for station/object KD9CCP. If no packets are shown the sender has not sent any weather packets the latest 10 day(s).
| Time | Temp. | Humidity | Pressure | Rain* | Wind** | Luminosity | Snow |
|---|---|---|---|---|---|---|---|
| 1777829868 | 16.67° C | 51% | 1005.1 hPa | 0 mm | - | 732 W/m² | - |
| 1777829564 | 16.67° C | 53% | 1005.1 hPa | 0 mm | - | 732 W/m² | - |
| 1777829261 | 16.67° C | 51% | 1005.2 hPa | 0 mm | - | 626 W/m² | - |
| 1777828958 | 16.11° C | 52% | 1005.3 hPa | 0 mm | - | 707 W/m² | - |
| 1777828655 | 16.67° C | 53% | 1005.4 hPa | 0 mm | - | 684 W/m² | - |
| 1777828352 | 16.67° C | 50% | 1005.5 hPa | 0 mm | - | 690 W/m² | - |
| 1777828049 | 16.67° C | 52% | 1005.7 hPa | 0 mm | - | 685 W/m² | - |
| 1777827746 | 16.67° C | 52% | 1005.6 hPa | 0 mm | - | 474 W/m² | - |
| 1777827443 | 16.67° C | 51% | 1005.5 hPa | 0 mm | - | 335 W/m² | - |
| 1777827140 | 16.67° C | 51% | 1005.5 hPa | 0 mm | - | 142 W/m² | - |
| 1777826836 | 16.11° C | 52% | 1005.7 hPa | 0 mm | - | 285 W/m² | - |
| 1777826534 | 16.11° C | 53% | 1005.5 hPa | 0 mm | - | 264 W/m² | - |
| 1777826229 | 16.67° C | 53% | 1005.6 hPa | 0 mm | - | 197 W/m² | - |
| 1777825928 | 16.11° C | 52% | 1005.8 hPa | 0 mm | - | 89 W/m² | - |
| 1777825624 | 16.11° C | 51% | 1005.6 hPa | 0 mm | - | 240 W/m² | - |
| 1777825323 | 16.11° C | 53% | 1005.8 hPa | 0 mm | - | 111 W/m² | - |
| 1777825019 | 16.67° C | 53% | 1005.8 hPa | 0 mm | - | 194 W/m² | - |
| 1777824714 | 16.11° C | 54% | 1005.9 hPa | 0 mm | - | 180 W/m² | - |
| 1777824412 | 15.56° C | 56% | 1006 hPa | 0 mm | - | 317 W/m² | - |
| 1777824107 | 15° C | 56% | 1005.9 hPa | 0 mm | - | 299 W/m² | - |
| 1777823804 | 15° C | 57% | 1006 hPa | 0 mm | - | 426 W/m² | - |
| 1777823502 | 15° C | 57% | 1006 hPa | 0 mm | - | 574 W/m² | - |
| 1777823198 | 14.44° C | 59% | 1006.1 hPa | 0 mm | - | 344 W/m² | - |
| 1777822897 | 14.44° C | 59% | 1006.3 hPa | 0 mm | - | 291 W/m² | - |
| 1777822594 | 14.44° C | 59% | 1006.4 hPa | 0 mm | - | 580 W/m² | - |
* Rain latest hour (hover to see other rain measurements)
** Current wind speed in m/s (hover to see current wind gust speed)